Wetbulb
47.81 45.12 42.69 45.11 45.31 47.13 43.72 42.84 42.57 43.19 44.99 40.61 40.05 39.48 42.76 44.65 42.30 42.51 44.08 44.51 49.31 54.92 58.73 60.18 60.94 60.24 59.95 57.66 58.97 60.13 60.65 61.35 62.38 61.84 59.91 59.82 59.87 59.36 58.39 58.90 60.69 61.45 60.68 60.35
44.53 41.99 45.98 47.75 47.04 46.37 44.35 43.79 41.72 43.32 43.82 41.90 40.52 40.38 42.93 44.96 44.21 43.17 43.91 44.15 44.76 51.72 53.22 58.06 59.46 59.80 60.32 58.73 57.43 59.27 60.30 61.19 61.91 61.94 61.55 60.77 60.29 59.70 60.41 60.47 60.50 61.45 61.09 61.09
40.82 43.22 48.48 46.94 45.21 44.21 46.40 44.00 43.22 41.06 42.01 41.94 39.39 39.41 41.48 45.34 47.80 48.16 46.50 46.15 46.45 46.50 52.86 54.75 57.68 59.27 60.66 58.38 56.33 57.80 59.61 60.60 61.82 61.90 61.37 58.98 58.48 58.75 58.87 59.33 59.97 60.92 61.90 61.57
43.66 46.98 46.29 45.73 44.42 45.87 42.42 48.19 47.51 41.27 41.17 36.49 41.33 34.08 38.98 44.56 45.64 47.76 49.79 47.71 47.28 46.21 49.20 54.86 57.15 58.44 59.91 60.29 58.48 57.14 59.30 60.09 60.86 61.13 60.11 59.53 58.70 58.28 60.05 60.36 60.60 60.49 61.78 61.86
40.34 44.02 43.79 44.39 44.75 47.91 44.93 44.54 41.97 41.27 35.78 35.21 33.66 32.45 35.79 40.40 42.42 46.15 48.61 49.37 47.51 46.18 46.29 49.85 56.00 58.13 59.76 60.95 59.47 58.13 57.40 59.06 60.00 59.96 60.28 59.53 59.03 59.49 59.90 60.27 59.52 60.16 61.58 62.20
42.00 47.24 46.85 46.10 45.49 47.09 42.08 41.18 40.46 38.52 37.57 32.67 34.41 34.79 34.00 38.19 41.62 43.44 46.20 48.63 49.35 47.17 46.39 46.17 52.42 57.21 58.25 60.04 60.67 60.06 58.56 57.26 58.51 59.13 59.57 59.16 58.69 58.46 58.56 59.57 59.59 60.20 61.25 61.91
41.29 43.25 44.59 47.11 40.11 42.16 41.70 40.92 31.96 31.02 31.40 30.91 33.52 32.15 38.28 41.40 43.20 43.68 44.15 44.83 46.95 48.08 47.35 47.23 46.28 51.93 55.56 57.54 59.77 60.47 60.43 59.30 58.02 58.05 58.57 58.79 58.61 58.73 59.32 59.81 60.33 60.35 60.98 61.55
35.39 35.29 42.47 44.84 41.75 38.32 39.92 41.27 33.80 26.58 26.64 27.78 29.00 29.87 35.47 42.91 45.79 43.95 43.48 42.60 43.42 42.58 45.82 46.47 47.55 48.37 54.43 56.20 59.12 60.20 60.23 60.83 61.32 59.86 58.41 58.75 59.18 59.77 60.30 60.89 61.05 61.13 61.65 62.03
35.33 34.02 40.84 44.70 43.12 43.16 38.03 37.05 39.00 28.32 19.53 25.03 28.42 32.56 38.38 41.21 41.23 40.14 39.65 39.80 41.13 41.13 42.11 45.21 44.47 44.96 49.22 52.17 54.80 58.26 59.56 60.45 60.54 61.35 61.72 60.33 59.53 59.97 60.96 61.49 61.70 61.78 61.93 62.23
37.71 31.32 39.46 41.62 43.00 42.63 41.95 41.64 34.29 32.47 21.13 20.30 26.24 27.13 31.86 35.58 38.73 40.52 39.58 39.66 40.50 40.89 41.07 41.85 43.32 43.91 44.14 48.55 52.68 54.08 56.03 57.12 58.45 57.95 60.06 61.73 61.63 61.65 61.81 61.66 61.22 61.55 61.38 60.99
37.44 34.19 33.08 39.48 38.26 36.42 37.02 37.46 36.64 35.08 30.65 24.22 23.04 27.81 36.18 38.78 38.84 39.57 39.92 40.14 40.94 40.20 39.85 40.61 41.40 41.71 42.14 42.55 43.52 46.09 48.66 52.12 53.26 55.10 55.58 56.64 58.34 59.31 59.80 61.49 61.08 60.65 59.19 59.53
37.69 33.24 30.71 34.53 36.27 41.00 39.60 40.17 38.04 34.29 29.05 29.52 28.54 29.05 38.43 38.50 38.49 39.26 38.95 39.11 38.80 39.12 39.65 39.88 40.75 40.64 41.12 41.47 41.52 41.86 42.78 44.00 45.97 47.93 51.18 52.98 54.09 55.37 56.57 58.95 59.55 57.48 58.71 56.22
37.60 31.62 28.01 29.52 33.24 36.12 36.72 38.26 39.09 36.03 32.90 28.50 26.46 28.87 37.62 36.06 36.77 37.15 38.43 38.89 39.86 40.30 40.42 40.95 40.90 40.88 40.90 41.20 41.80 42.08 42.39 42.78 44.27 45.48 45.81 46.65 48.60 51.97 53.40 54.31 55.35 56.09 55.37 53.15
39.87 33.77 31.43 29.73 34.23 34.72 33.21 35.61 37.20 34.94 27.68 28.26 31.65 32.13 33.96 36.77 37.15 36.90 37.82 38.96 39.18 39.88 40.69 40.28 39.97 40.57 41.01 41.59 41.56 41.69 42.20 43.02 44.22 45.56 45.72 45.40 45.66 46.80 49.37 51.61 51.83 52.53 52.11 51.03
37.86 28.91 32.51 33.99 34.90 35.74 36.13 35.62 36.52 35.44 36.25 33.14 36.07 35.09 37.42 37.60 37.54 37.75 38.63 38.15 38.89 39.39 39.46 40.09 40.45 40.47 41.04 41.10 41.06 41.63 42.05 43.38 44.08 44.40 44.13 44.38 44.14 44.80 44.82 45.76 47.09 46.17 46.54 47.58
37.81 28.94 31.02 26.11 34.10 35.20 34.35 36.95 37.93 38.08 38.49 37.18 35.11 34.67 41.29 41.49 38.73 37.93 38.64 39.38 40.14 40.53 41.29 41.52 41.12 40.83 41.48 41.78 41.31 41.55 41.50 42.25 42.82 42.87 42.23 41.71 41.53 40.87 40.31 39.64 39.55 39.57 40.56 41.15
34.66 30.38 27.98 21.99 29.73 30.84 25.20 34.15 36.52 37.92 39.55 38.86 33.74 39.37 39.49 39.39 39.84 38.42 38.78 39.81 40.17 40.00 40.83 40.71 40.65 40.87 40.22 40.93 41.96 41.05 41.22 41.31 41.07 39.43 37.84 37.48 37.20 37.28 36.25 35.37 35.54 35.93 35.93 35.04
32.65 31.44 29.33 24.74 28.90 19.94 30.42 38.05 40.16 38.48 39.46 40.93 41.05 38.88 39.11 39.67 40.62 39.95 39.80 39.72 40.12 40.16 40.52 40.20 39.89 39.89 40.42 41.09 41.26 41.69 40.60 39.26 37.07 35.94 35.88 35.63 35.67 35.23 34.95 34.51 34.24 33.79 34.24 36.00
37.99 32.83 28.51 25.91 18.26 25.18 29.75 32.61 36.22 35.40 35.69 40.78 40.28 40.81 38.77 38.78 36.75 37.11 40.57 41.14 41.05 40.00 40.55 39.58 39.47 39.81 39.88 39.84 39.89 38.14 35.68 35.25 35.47 35.30 34.98 34.65 34.16 30.91 32.35 30.62 31.57 35.21 34.28 33.38
37.63 36.58 31.14 26.75 22.88 20.68 28.84 34.77 39.04 37.91 30.01 39.80 40.62 40.17 38.41 37.68 34.35 39.74 41.36 39.77 38.28 38.49 38.67 38.25 38.49 38.25 37.67 36.04 36.39 34.90 34.29 34.12 34.07 34.18 34.27 33.90 33.52 29.10 29.13 30.31 28.53 28.62 32.69 32.76
30.55 31.20 28.89 28.58 23.73 27.61 30.91 33.05 39.60 25.23 30.36 36.13 39.26 40.79 40.32 37.88 41.34 37.76 37.21 36.62 36.54 36.19 36.65 36.57 35.85 34.43 33.72 32.66 33.61 33.22 32.70 32.59 32.71 32.28 31.62 29.80 30.17 27.86 28.07 27.66 27.76 27.09 31.43 31.85
30.18 28.74 27.88 25.47 21.62 24.18 34.13 35.15 33.11 35.58 32.44 33.93 34.56 36.16 38.12 38.05 35.73 35.65 35.41 34.90 34.55 33.76 34.03 33.59 31.52 29.97 30.28 31.35 32.66 31.31 30.84 30.49 28.99 27.58 27.83 27.09 27.44 29.76 29.84 23.48 25.08 31.39 32.01 31.89
28.56 32.96 29.58 31.83 30.76 33.91 33.02 35.39 35.96 35.87 35.20 34.27 35.13 34.42 36.25 34.97 34.14 34.00 33.42 32.77 32.05 31.49 30.60 30.57 29.30 28.60 28.01 27.11 29.02 29.26 27.37 27.95 26.02 27.10 27.62 29.70 29.70 30.21 30.52 23.98 26.29 30.99 31.49 31.02
30.24 34.28 29.84 31.09 32.59 32.73 34.46 32.91 34.64 35.34 34.96 35.14 34.58 34.63 35.66 34.96 33.68 32.20 31.19 30.32 29.56 27.95 27.56 25.34 25.97 24.58 23.91 23.55 25.27 24.04 24.27 27.60 30.36 25.60 26.71 22.73 22.84 25.45 27.34 25.27 25.84 25.73 29.36 30.11
30.64 32.92 27.52 26.93 29.88 31.36 32.26 34.22 36.24 34.67 33.85 33.35 33.06 33.03 34.53 33.43 31.46 31.85 29.82 28.43 28.02 26.56 25.07 24.51 25.20 24.26 22.58 21.44 21.08 20.13 22.50 21.21 24.46 22.08 23.04 27.49 25.95 21.34 22.31 23.55 23.87 25.52 24.69 26.69
30.63 30.89 31.81 28.31 32.42 34.86 34.85 35.02 33.35 33.04 32.88 32.19 32.28 31.76 31.11 31.65 30.78 29.91 28.06 27.37 26.88 25.09 23.94 23.52 21.68 21.30 17.98 16.32 15.86 15.20 15.77 16.68 19.77 24.45 22.39 21.62 21.33 20.13 21.42 20.94 22.83 30.77 33.20 34.53
MSLP
1016.50 1016.53 1015.61 1016.47 1017.11 1017.15 1017.47 1017.64 1017.43 1016.89 1017.09 1017.44 1017.24 1017.31 1016.56 1016.21 1016.27 1016.39 1016.57 1016.67 1017.03 1016.65 1016.39 1016.83 1017.25 1017.82 1018.37 1019.16 1019.59 1020.19 1020.51 1020.94 1021.54 1021.95 1022.60 1022.95 1022.88 1023.11 1023.34 1023.48 1023.64 1023.73 1024.02 1024.42
1016.70 1014.57 1015.22 1016.45 1016.99 1017.11 1017.12 1017.15 1017.18 1016.83 1016.69 1017.40 1017.38 1017.10 1016.72 1016.13 1015.80 1015.71 1015.79 1015.82 1015.87 1016.07 1016.17 1016.28 1016.73 1017.35 1017.37 1018.27 1018.91 1019.46 1019.82 1020.19 1020.85 1021.42 1021.74 1022.35 1022.36 1022.52 1022.46 1022.84 1023.01 1023.31 1023.65 1023.75
1014.37 1013.71 1014.96 1015.72 1016.58 1016.91 1017.07 1016.72 1016.98 1016.82 1017.28 1017.46 1017.59 1017.40 1016.47 1015.60 1015.23 1014.86 1014.61 1014.47 1014.61 1014.84 1015.38 1015.73 1016.08 1016.38 1016.63 1017.19 1017.74 1018.46 1018.91 1019.39 1020.00 1020.72 1021.37 1021.94 1022.23 1022.26 1022.45 1022.61 1022.74 1022.60 1022.95 1023.22
1014.31 1014.43 1014.18 1014.91 1015.43 1016.53 1016.83 1016.77 1017.18 1017.64 1017.18 1017.77 1017.72 1017.41 1015.87 1014.83 1014.19 1013.74 1013.41 1013.71 1013.87 1014.15 1014.23 1014.60 1014.90 1015.43 1015.60 1015.82 1016.40 1017.23 1018.08 1018.41 1019.00 1019.59 1020.27 1020.63 1020.80 1020.98 1021.01 1021.27 1021.60 1021.94 1022.26 1022.55
1012.66 1013.22 1013.37 1014.04 1014.11 1015.80 1016.77 1016.70 1017.58 1017.95 1017.56 1018.03 1018.22 1018.04 1015.25 1014.27 1013.75 1013.14 1012.73 1012.83 1013.09 1013.42 1013.51 1013.88 1014.26 1014.38 1014.58 1015.42 1015.81 1016.40 1017.22 1017.66 1018.10 1018.70 1019.23 1019.72 1020.08 1020.17 1020.43 1020.81 1021.14 1021.32 1021.42 1021.72
1013.06 1013.18 1013.84 1013.57 1015.15 1015.59 1017.27 1017.26 1018.01 1018.40 1018.50 1018.74 1017.82 1017.39 1015.33 1014.03 1012.58 1012.13 1012.04 1012.15 1012.40 1012.82 1013.03 1013.26 1013.43 1013.81 1014.24 1014.82 1015.42 1015.93 1016.51 1016.93 1017.40 1017.67 1018.35 1018.69 1018.99 1019.44 1019.94 1020.25 1020.48 1020.60 1020.75 1020.94
1012.70 1013.09 1013.31 1013.46 1015.28 1016.59 1016.43 1017.47 1018.72 1019.84 1019.10 1018.28 1017.49 1017.08 1014.60 1012.88 1011.98 1011.63 1011.75 1011.83 1011.90 1012.26 1012.49 1012.64 1012.98 1013.55 1014.04 1014.45 1014.72 1015.22 1015.79 1016.18 1016.69 1017.24 1017.79 1017.93 1018.23 1018.65 1018.88 1019.18 1019.52 1019.97 1020.12 1020.19
1010.52 1012.75 1012.60 1012.75 1013.23 1014.11 1015.58 1016.16 1016.75 1017.93 1018.79 1018.51 1018.02 1016.34 1013.52 1011.94 1011.30 1011.25 1011.10 1011.22 1011.77 1011.79 1011.99 1012.25 1012.25 1012.72 1013.36 1013.79 1014.19 1014.67 1015.21 1015.44 1015.67 1016.04 1016.36 1016.74 1017.36 1017.76 1017.97 1018.20 1018.44 1018.75 1018.95 1019.05
1009.35 1011.42 1012.05 1012.35 1012.74 1013.63 1015.18 1015.44 1015.69 1017.17 1019.00 1018.46 1017.15 1015.21 1013.38 1011.48 1011.46 1011.25 1011.12 1011.16 1011.35 1011.52 1011.61 1011.76 1012.12 1012.57 1013.10 1013.69 1013.90 1014.12 1014.49 1014.85 1015.40 1015.52 1015.97 1016.37 1016.70 1017.02 1017.08 1017.47 1017.89 1018.08 1018.24 1018.35
1007.96 1010.69 1011.73 1012.74 1013.18 1013.59 1013.45 1014.69 1015.32 1016.12 1017.87 1018.10 1016.60 1015.07 1012.89 1011.65 1011.14 1011.01 1011.20 1011.25 1011.42 1011.50 1011.71 1011.89 1012.12 1012.48 1012.82 1012.99 1013.16 1013.60 1014.06 1014.29 1014.51 1015.05 1015.40 1015.63 1016.00 1016.29 1016.63 1017.02 1017.12 1017.20 1017.44 1017.62
1007.23 1009.44 1012.28 1012.61 1012.87 1012.26 1013.35 1013.27 1013.70 1014.36 1015.79 1016.02 1015.82 1013.78 1011.47 1010.87 1010.73 1010.73 1010.96 1011.08 1011.34 1011.81 1012.15 1012.31 1012.55 1012.68 1012.98 1013.18 1013.48 1013.67 1013.92 1014.23 1014.56 1014.77 1014.99 1015.24 1015.29 1015.45 1015.76 1016.03 1016.14 1016.27 1016.63 1016.90
1006.95 1009.27 1011.67 1012.29 1012.56 1011.88 1012.02 1012.29 1012.64 1013.52 1014.83 1015.09 1014.51 1012.73 1010.71 1010.40 1010.58 1010.46 1011.07 1011.50 1011.68 1012.00 1012.22 1012.35 1012.52 1012.85 1013.21 1013.55 1013.72 1013.86 1014.01 1014.12 1014.08 1014.13 1014.35 1014.52 1014.73 1014.93 1015.06 1015.04 1015.16 1015.51 1015.94 1016.31
1005.75 1008.73 1011.33 1012.86 1013.16 1012.40 1012.08 1011.70 1011.69 1012.38 1013.58 1014.07 1014.00 1012.14 1010.71 1010.64 1010.60 1010.76 1011.10 1011.53 1011.77 1012.10 1012.34 1012.54 1012.81 1013.11 1013.26 1013.50 1013.74 1013.68 1013.73 1013.85 1014.04 1014.20 1014.45 1014.58 1014.67 1014.66 1014.69 1014.93 1015.18 1015.35 1015.73 1016.11
1005.20 1007.56 1008.24 1008.19 1006.92 1009.41 1011.00 1011.11 1011.41 1011.75 1012.87 1012.75 1012.03 1011.79 1011.13 1010.95 1010.78 1010.92 1011.12 1011.38 1011.66 1012.06 1012.20 1012.38 1012.75 1013.06 1013.23 1013.50 1013.77 1013.96 1013.94 1014.10 1014.29 1014.48 1014.69 1014.78 1014.76 1014.69 1014.63 1014.73 1014.92 1015.17 1015.39 1015.71
1005.21 1007.30 1008.39 1008.77 1009.20 1009.92 1010.58 1010.99 1011.33 1011.48 1011.28 1011.66 1010.13 1010.95 1010.42 1010.23 1010.40 1010.40 1010.50 1010.99 1011.29 1011.51 1011.90 1012.02 1012.21 1012.51 1012.73 1013.11 1013.51 1013.64 1013.75 1014.02 1014.35 1014.61 1014.87 1014.99 1015.07 1015.18 1015.18 1015.04 1014.99 1014.81 1014.75 1014.94
1005.65 1007.51 1008.55 1009.88 1009.64 1009.81 1010.20 1010.22 1010.02 1009.51 1009.41 1009.69 1009.69 1009.74 1009.24 1009.17 1009.67 1010.13 1010.18 1010.49 1010.63 1010.72 1010.93 1011.05 1011.47 1011.79 1012.18 1012.64 1013.09 1013.37 1013.53 1013.90 1014.26 1014.72 1015.03 1015.34 1015.72 1016.15 1016.51 1016.59 1016.57 1016.35 1016.32 1016.44
1005.37 1006.71 1008.41 1010.33 1010.46 1010.96 1011.19 1008.47 1007.95 1007.58 1008.40 1007.71 1008.82 1007.03 1008.52 1008.74 1009.05 1009.48 1009.78 1009.81 1009.98 1010.22 1010.44 1010.69 1011.24 1011.61 1012.07 1012.55 1013.00 1013.46 1013.61 1013.92 1014.38 1014.79 1015.09 1015.32 1015.60 1015.86 1016.34 1016.80 1017.19 1017.57 1017.74 1017.63
1005.57 1007.10 1008.59 1010.92 1010.96 1011.03 1007.52 1006.67 1006.86 1007.23 1006.72 1006.72 1006.55 1007.12 1007.62 1007.81 1008.00 1008.21 1008.69 1009.09 1009.47 1009.90 1010.14 1010.79 1011.26 1011.79 1012.16 1012.55 1013.01 1013.45 1013.80 1014.19 1014.74 1015.18 1015.42 1015.59 1015.71 1015.76 1015.95 1016.19 1016.53 1016.91 1017.47 1017.98
1006.00 1007.51 1009.65 1010.79 1010.48 1009.26 1007.32 1006.27 1006.11 1006.66 1005.78 1005.62 1005.51 1007.15 1007.53 1007.72 1008.22 1008.42 1008.36 1008.46 1008.74 1009.31 1009.98 1010.69 1011.40 1012.09 1012.77 1013.15 1013.45 1013.64 1014.15 1014.55 1014.83 1015.20 1015.43 1015.67 1015.93 1016.14 1016.31 1016.41 1016.42 1016.26 1016.34 1016.96
1007.44 1008.23 1009.31 1010.62 1010.29 1008.45 1005.68 1005.17 1005.68 1006.67 1005.56 1003.84 1005.26 1006.67 1007.63 1008.29 1008.74 1007.44 1008.35 1008.95 1009.71 1010.26 1010.68 1011.31 1011.96 1012.56 1013.18 1013.75 1013.87 1014.09 1014.67 1014.93 1015.19 1015.31 1015.35 1015.50 1015.68 1016.21 1016.49 1016.94 1016.99 1016.82 1016.74 1016.59
1007.84 1008.87 1009.15 1009.55 1009.16 1007.21 1005.32 1004.67 1005.37 1006.37 1003.06 1002.59 1003.25 1004.81 1006.27 1007.16 1006.58 1007.94 1008.59 1009.69 1010.60 1011.34 1011.90 1012.46 1012.90 1013.44 1014.02 1014.23 1014.30 1014.76 1015.07 1015.38 1015.54 1015.47 1015.50 1015.62 1015.90 1016.44 1016.37 1016.44 1016.94 1017.09 1016.97 1016.97
1005.51 1007.18 1008.40 1009.01 1008.70 1006.35 1003.61 1004.68 1003.17 1002.11 1003.18 1003.23 1003.48 1004.54 1005.80 1006.42 1007.49 1008.59 1009.65 1010.73 1011.49 1012.12 1012.74 1013.41 1014.02 1014.58 1014.69 1014.75 1014.90 1015.27 1015.53 1015.81 1016.01 1016.06 1016.31 1016.43 1016.56 1016.69 1016.86 1017.01 1016.96 1016.67 1016.84 1017.22
1004.69 1003.47 1004.94 1005.50 1003.75 1002.85 1002.58 1002.02 1001.98 1002.12 1003.16 1003.56 1003.57 1004.42 1005.42 1006.97 1008.40 1009.45 1010.53 1011.46 1012.34 1013.09 1013.79 1014.49 1014.86 1015.61 1015.87 1015.76 1015.56 1015.84 1016.43 1016.39 1016.34 1016.59 1016.97 1017.02 1016.84 1016.80 1017.05 1017.45 1017.51 1017.47 1017.23 1017.15
1003.78 1003.53 1004.16 1004.71 1003.60 1002.92 1002.93 1002.80 1002.52 1002.76 1003.19 1003.79 1004.22 1004.97 1005.99 1007.27 1008.67 1009.83 1010.95 1012.03 1012.92 1013.87 1014.49 1014.90 1015.44 1016.53 1017.06 1017.13 1016.86 1016.95 1016.82 1016.53 1016.40 1017.08 1017.07 1017.30 1017.21 1017.42 1017.42 1017.35 1017.38 1017.45 1017.64 1017.67
1003.54 1004.06 1004.37 1004.53 1004.28 1003.68 1003.22 1002.96 1003.05 1003.55 1004.05 1004.66 1005.19 1005.83 1006.66 1007.61 1009.29 1010.26 1011.55 1012.51 1013.38 1014.23 1015.09 1015.66 1016.23 1016.97 1017.37 1017.50 1017.48 1017.47 1017.04 1016.85 1016.89 1017.41 1017.38 1017.54 1017.64 1017.47 1017.82 1017.94 1017.83 1018.00 1017.42 1017.28
1005.21 1005.28 1005.29 1004.47 1003.70 1003.22 1002.98 1002.85 1003.36 1004.15 1005.02 1005.57 1006.11 1007.09 1007.84 1008.45 1009.67 1010.84 1012.30 1013.22 1014.11 1015.07 1015.87 1016.34 1016.74 1017.22 1017.91 1017.98 1018.17 1018.31 1018.17 1017.83 1017.52 1017.74 1017.78 1017.91 1017.91 1018.38 1018.20 1017.91 1017.84 1017.76 1017.61 1017.50
Wind_Speed
6 8 22 14 16 5 12 9 10 9 8 8 15 7 12 8 6 8 9 8 10 17 18 17 16 12 13 12 14 15 14 11 10 8 8 7 8 6 4 5 7 9 7 7
8 24 17 12 14 13 8 14 8 3 8 9 6 14 8 9 8 9 10 10 10 10 9 15 16 14 17 16 15 16 17 15 13 10 10 6 7 5 8 6 8 9 9 10
21 12 16 13 14 15 10 12 7 5 5 1 3 6 8 9 15 10 13 9 10 13 15 13 16 18 17 16 17 17 17 17 15 14 8 4 2 1 4 6 7 9 11 11
14 10 20 19 18 15 17 8 5 7 12 5 6 6 6 12 15 17 20 12 15 11 10 15 18 17 19 20 17 17 17 18 17 17 13 16 12 12 10 11 9 8 10 12
15 20 26 21 25 18 6 7 9 4 4 4 3 1 8 4 10 18 18 15 11 11 10 11 17 19 18 16 15 16 16 17 17 16 16 13 13 10 8 8 9 11 10 12
5 4 13 11 3 10 11 7 8 6 3 4 8 7 6 5 7 4 8 13 13 11 11 10 11 14 14 13 13 14 16 16 16 17 18 18 17 13 9 9 10 9 10 10
6 9 2 14 12 5 7 11 3 3 4 8 3 5 10 8 6 4 5 7 9 10 10 13 11 10 10 13 16 14 16 17 16 16 16 18 18 16 15 14 11 10 9 9
20 13 17 8 10 14 12 9 6 8 6 5 1 8 8 10 11 6 5 4 5 6 8 10 13 10 13 14 16 15 14 17 16 17 19 18 17 11 12 14 12 11 11 11
17 7 6 14 6 16 6 6 4 7 2 4 5 6 8 9 8 5 6 4 7 5 2 10 8 8 9 8 10 14 15 15 11 14 13 13 15 16 14 14 11 10 11 10
6 9 6 7 7 1 13 12 6 1 6 4 4 5 7 5 7 7 6 8 7 5 4 1 3 5 5 7 9 9 9 13 12 9 9 11 11 12 14 10 12 12 10 10
6 7 3 9 8 13 6 12 5 7 6 7 3 7 8 10 7 8 8 8 8 6 5 5 4 3 4 3 5 7 6 7 7 7 7 7 8 8 8 12 12 12 8 10
6 7 7 4 4 6 4 13 4 7 6 3 4 7 4 6 8 7 7 6 5 5 5 4 3 3 3 4 3 4 4 7 8 8 8 10 7 7 8 11 11 7 9 6
10 5 10 3 7 3 9 9 7 5 4 7 7 7 2 2 6 6 9 7 7 6 6 3 2 4 5 6 6 7 6 7 6 5 7 6 7 7 7 7 7 7 6 6
9 5 7 20 27 10 11 8 5 6 5 5 9 4 4 7 7 7 7 7 8 7 7 5 3 5 6 6 6 5 5 5 5 5 5 6 6 6 5 5 6 6 6 6
7 5 4 7 10 10 18 17 14 10 11 9 16 14 9 11 10 11 10 8 8 8 8 8 6 7 6 5 5 5 5 5 4 4 3 5 4 4 4 4 5 5 7 7
3 5 6 4 11 15 22 23 24 26 21 16 5 8 11 9 6 7 10 9 8 7 8 8 7 7 5 6 6 5 5 5 4 4 3 2 3 4 5 5 5 4 3 3
10 8 7 5 8 11 2 29 30 24 21 25 14 19 9 9 11 9 9 10 9 7 8 7 7 6 3 2 2 4 4 4 5 4 3 3 3 2 1 2 3 5 5 3
8 8 4 6 12 5 10 18 24 26 28 28 21 8 11 10 11 8 8 9 9 10 8 7 6 5 5 3 3 3 4 3 2 2 2 3 3 4 4 4 4 3 1 4
6 5 7 8 6 4 7 8 27 22 27 25 29 13 6 4 2 5 8 9 9 7 6 5 5 4 5 5 3 6 5 5 4 2 3 3 3 3 3 4 4 5 5 4
9 8 5 4 6 14 5 8 12 6 16 19 20 17 11 5 9 12 11 6 6 7 6 7 7 6 6 3 3 6 5 4 3 0 2 2 3 4 3 3 3 2 1 2
10 4 7 9 2 8 9 8 18 10 13 11 20 24 23 18 19 6 7 6 5 5 7 6 7 7 4 2 5 7 6 5 2 1 2 2 1 2 2 3 1 1 1 2
12 11 6 4 3 16 10 17 25 7 2 5 6 9 13 9 8 8 8 9 9 9 7 6 7 6 5 4 6 6 7 4 4 4 4 4 4 2 2 1 1 2 3 2
6 12 12 15 9 2 6 7 5 5 8 5 8 6 9 10 8 9 8 8 7 8 7 5 7 7 6 5 4 7 1 2 5 5 5 3 4 4 2 1 1 1 1 1
3 5 5 6 7 5 7 2 3 3 6 6 6 9 9 9 11 8 8 8 7 5 6 4 8 7 6 5 7 4 2 4 7 5 5 2 3 3 3 2 1 1 1 2
4 9 7 3 3 2 2 5 9 5 6 6 6 5 8 12 7 9 8 9 8 6 5 5 8 8 7 4 6 6 6 4 6 3 3 4 3 4 3 2 1 1 2 3
4 1 9 5 9 6 7 8 7 9 8 8 8 6 4 7 11 11 9 7 8 9 5 7 7 9 6 6 6 6 6 4 4 5 3 3 3 3 2 2 3 7 7 8
Wind_Direction
195 173 200 186 196 194 165 196 196 206 188 158 215 217 237 246 221 219 229 210 206 197 202 196 197 186 176 178 172 182 181 179 184 189 195 211 209 198 202 195 195 192 185 189
181 211 185 165 186 210 197 208 210 23 157 181 207 244 245 232 218 204 211 224 211 209 200 191 192 181 179 184 183 183 189 184 190 194 196 209 203 206 204 200 200 190 192 193
195 187 164 164 189 197 222 205 230 159 136 351 65 286 235 242 235 218 218 209 217 192 199 192 188 189 187 184 187 190 190 188 189 193 193 195 172 155 179 202 209 205 195 198
206 201 170 181 191 190 217 178 234 186 145 194 161 268 256 218 224 222 227 211 219 208 191 197 192 193 193 197 190 188 191 188 191 186 192 198 200 201 205 205 203 200 195 199
190 175 179 182 194 180 213 137 138 200 106 117 211 179 266 225 238 232 232 222 208 212 199 186 199 197 201 190 191 192 190 193 193 192 198 196 208 212 203 201 197 204 202 201
162 158 170 178 104 154 149 98 52 28 85 245 187 173 262 216 213 223 226 224 218 207 212 202 196 204 199 193 192 192 196 202 198 195 199 204 208 206 200 199 203 207 205 207
130 175 121 141 109 108 134 164 123 185 195 233 233 185 237 229 227 177 200 226 221 220 211 209 197 188 193 189 193 192 197 204 199 196 203 208 210 207 206 206 206 201 205 210
168 179 177 191 161 172 178 175 155 192 185 197 310 223 244 232 253 236 227 256 204 151 214 213 212 189 195 195 197 195 194 206 200 200 207 207 210 211 214 213 210 213 212 214
171 185 144 176 126 148 179 171 136 100 26 84 214 286 298 256 256 253 237 233 193 174 184 206 201 197 187 191 194 195 199 214 202 209 209 209 211 216 217 222 214 218 220 220
186 109 170 136 113 196 178 151 165 133 144 223 258 261 238 254 222 229 230 217 213 216 193 164 188 200 203 202 195 182 191 201 202 192 204 213 211 216 223 217 218 217 217 207
124 112 133 125 204 166 162 190 186 120 157 160 154 254 218 219 177 175 198 202 194 185 153 155 167 180 202 191 192 212 198 200 203 201 207 208 212 204 200 215 218 215 209 199
182 114 137 137 311 198 157 184 157 172 212 207 138 268 247 197 178 154 150 137 140 154 171 173 175 187 202 215 216 220 221 216 215 205 203 210 210 213 213 217 216 190 205 191
174 131 126 103 357 339 207 195 158 119 102 201 137 251 16 146 142 152 143 152 160 161 155 169 181 212 214 220 225 220 218 230 237 219 218 228 221 209 217 218 202 186 183 185
99 145 174 194 198 108 173 174 168 126 144 158 217 195 199 198 186 165 188 170 180 180 188 204 202 226 218 216 217 226 243 231 228 227 229 231 223 219 216 213 205 207 188 186
116 127 144 137 143 133 170 167 183 199 191 188 225 206 207 201 189 185 186 176 179 201 201 211 210 200 206 210 218 220 225 219 213 218 228 245 261 260 232 216 210 197 189 187
238 155 116 13 161 162 184 188 191 204 202 226 124 232 206 199 161 178 192 185 192 190 188 198 197 190 205 205 210 213 214 213 175 200 237 308 325 338 328 333 322 319 310 286
160 133 130 187 126 103 352 200 197 204 199 206 198 217 178 198 200 193 187 186 190 195 208 215 211 206 204 204 212 222 215 167 164 170 192 186 174 181 238 355 351 322 303 308
139 125 86 151 128 183 239 189 206 201 208 212 226 162 170 189 202 193 183 187 213 203 211 201 187 142 105 91 77 87 70 86 131 191 235 224 205 203 194 184 201 210 226 272
69 104 82 153 191 273 288 194 190 183 227 219 222 195 190 188 57 269 220 219 215 200 188 159 120 110 99 79 68 116 107 117 128 171 237 249 236 236 222 226 218 196 174 186
89 73 115 141 172 206 218 189 147 82 271 208 215 214 195 170 230 230 217 201 113 111 120 128 117 102 101 44 92 112 110 107 94 356 270 248 211 192 219 240 222 232 221 198
142 143 158 172 191 282 245 162 133 138 244 192 194 194 194 203 218 161 123 82 100 104 109 94 87 98 88 47 122 105 105 83 346 360 52 69 58 238 220 187 189 228 253 213
157 150 164 118 166 255 174 147 173 158 264 167 156 158 186 192 129 139 136 136 131 122 108 106 101 82 49 53 107 95 73 9 21 48 55 41 41 15 26 156 243 147 155 193
148 183 168 193 206 243 190 190 193 141 149 183 122 138 147 135 155 150 144 128 118 115 113 103 105 90 44 31 79 102 20 58 87 76 62 52 45 55 44 81 65 4 166 178
248 157 171 104 225 196 172 67 123 149 144 146 133 136 141 147 148 140 134 132 120 119 120 121 108 87 71 31 51 55 35 82 89 87 75 51 80 40 28 45 117 113 351 304
179 141 153 271 278 37 253 218 173 147 108 109 89 127 156 136 138 140 137 133 129 117 108 106 116 113 92 64 57 24 20 57 85 76 66 59 48 61 31 2 225 262 254 182
345 109 196 226 177 178 201 203 141 139 170 155 132 115 87 126 139 130 125 121 126 123 122 110 97 97 84 75 56 22 4 29 102 84 56 50 51 17 31 48 358 351 344 320